LDPE-2

Last updated on Sat Jul 18 2026 00:03:05 GMT+0000 (Coordinated Universal Time)

1 54219U 22144A 26198.33447486 .00000004 00000+0 00000+0 0 9991 2 54219 5.6696 63.2911 0002486 109.8930 113.9269 1.00544505 12140
UTC large
Height (km)
Speed (km/s)
/
Latitude / Longitude
Inclination (degrees)
Orbital Period (minutes)
Azimuth
Elevation
Range (km)
Doppler Factor

Next 0 passes for location: London (51.5072 / 0.1276)

No passes found over London.
LDPE-2